Location: Allos
(44.2333°N, 6.6333°E)
Time: 12:55:16
(UTC+00:00)

X-37B - Pass Details

Date: 01 December 2020
Orbit: 383 x 391 km, 45.1° (Epoch: 22 January)

Event Time Altitude Azimuth Distance (km) Brightness Sun altitude
Rises 17:19:36 0° 255° (WSW) 2,255 6.4 -14.6°
Reaches altitude 10° 17:21:39 10° 254° (WSW) 1,405 4.8 -14.9°
Maximum altitude 17:24:49 83° 168° (SSE) 392 0.5 -15.5°
Enters shadow 17:25:49 40° 83° (E) 580 0.9 -15.6°
